Content
SEND FEEDBACK

Daily
Averages
Monthly
Summary
United States of America

ST. LOUIS - SAINT LOUIS UNIVERSITY, MISSOURI


Home > North America > United States > Missouri
Elevation: 580 feet     Latitude: 38 38N     Longitude: 090 14W

WEATHER
 
SELECT A DAY
Number of Records: 189,112;   Date Range: 1/1/95 - 10/22/14
 
SHARE

PRINT THIS DATA

[ ← Previous Day ]
WEATHER ALMANAC - JANUARY 8, 2013
[ Next Day → ]
[ °C ]   °F
Weather ElementAverageHighLow
Temperature40.3 °F52 °F (1:53 pm)24.1 °F (3:53 am)
Dewpoint28.9 °F35.1 °F (9:53 pm)21 °F (3:53 am)
Humidity65.8 %88 % (3:53 am)41 % (1:53 pm)
Barometer30.17 in30.24 in (8:53 am)30.11 in (2:53 pm)
Wind Speed5 mph9.2 mph (2:53 pm)
Wind Gust19.6 mph (6:53 pm)
Weather ElementAverage
Visibility9.6 mi
Wind DirectionESE (117 °)

Weather ElementTotal
Precipitation---
Heating Degree Days27 (Base 65)
Averaged from 23 records on January 8, 2013
WEATHER CONDITIONS BREAKOUT
WIND DIRECTION BREAKOUT
WEATHER BY HOUR - JANUARY 8, 2013
[ °C ]   °F
Local TimeTemperatureDewpointHumidityBarometerVisibilityWind DirectionWind SpeedGust SpeedPrecipitationEventsConditions
1:53 AM30.0 °F23.0 °F75 %30.18 in10.0 miCalmClear
2:53 AM30.0 °F24.1 °F79 %30.19 in10.0 miCalmClear
3:53 AM24.1 °F21.0 °F88 %30.19 in10.0 miCalmClear
4:53 AM25.0 °F21.0 °F85 %30.20 in8.0 miCalmClear
5:53 AM26.1 °F23.0 °F88 %30.21 in8.0 miSSE (160°)5.8 mphClear
6:53 AM28.0 °F24.1 °F85 %30.22 in8.0 miSouth (180°)3.5 mphClear
7:53 AM30.0 °F25.0 °F82 %30.22 in7.0 miSSE (150°)4.6 mphClear
8:53 AM33.1 °F26.1 °F75 %30.24 in9.0 miSouth (170°)3.5 mphClear
9:53 AM39.0 °F27.0 °F62 %30.23 in10.0 miSouth (170°)5.8 mphClear
10:53 AM43.0 °F28.0 °F56 %30.21 in10.0 miSSE (160°)6.9 mphClear
11:53 AM46.9 °F28.9 °F50 %30.17 in10.0 miSSE (160°)8.1 mphClear
12:53 PM50.0 °F28.9 °F44 %30.15 in10.0 miSouth (170°)5.8 mphClear
1:53 PM52.0 °F28.9 °F41 %30.13 in10.0 miVariable5.8 mphClear
2:53 PM51.1 °F32.0 °F48 %30.11 in10.0 miSE (130°)9.2 mphClear
3:53 PM50.0 °F33.1 °F52 %30.12 in10.0 miESE (120°)9.2 mphClear
4:53 PM46.0 °F33.1 °F61 %30.12 in10.0 miSSE (150°)6.9 mphMostly Cloudy
5:53 PM44.1 °F32.0 °F63 %30.13 in10.0 miSE (140°)6.9 mphScattered Clouds
6:53 PM46.0 °F33.1 °F61 %30.13 in10.0 miSSE (160°)9.2 mph19.6 mphMostly Cloudy
7:53 PM46.9 °F33.1 °F59 %30.14 in10.0 miSouth (170°)8.1 mphOvercast
8:53 PM46.9 °F34.0 °F61 %30.14 in10.0 miSouth (170°)6.9 mphOvercast
9:53 PM46.0 °F35.1 °F66 %30.15 in10.0 miSouth (170°)4.6 mphMostly Cloudy
10:53 PM46.0 °F35.1 °F66 %30.15 in10.0 miSSE (160°)3.5 mphMostly Cloudy
11:53 PM46.0 °F35.1 °F66 %30.18 in10.0 miCalmOvercast
Hourly data recorded from KCPS, located miles away from St. Louis - Saint Louis University, Missouri







STORIES FROM OUR PARTNERS